| time (UTC) | temp C | wind direction | speed KPH | gust KPH | rain 1hr cm | rain 24hr cm | rain mn cm | humidity % | barometer mb |
| 20260504130556 | 16 | 148 | 1.6 | 3.2 | 0.00 | 0.00 | 0.00 | 49 | 1004.2 |
| 20260504110444 | 7 | 145 | 0.0 | 0.0 | 0.00 | 0.00 | 0.00 | 84 | 1004.6 |
| 20260504100407 | 8 | 146 | 0.0 | 0.0 | 0.00 | 0.00 | 0.00 | 81 | 1004.4 |
| 20260504081800 | 7 | 147 | 0.0 | 0.0 | 0.00 | 0.00 | 0.00 | 83 | 1004.6 |
| 20260504081256 | 7 | 144 | 0.0 | 0.0 | 0.00 | 0.00 | 0.00 | 83 | 1004.7 |
| 20260504080753 | 7 | 144 | 0.0 | 0.0 | 0.00 | 0.00 | 0.00 | 84 | 1004.7 |
| 20260504080249 | 7 | 144 | 0.0 | 0.0 | 0.00 | 0.00 | 0.00 | 83 | 1004.7 |
| 20260504070217 | 7 | 144 | 0.0 | 0.0 | 0.00 | 0.00 | 0.00 | 83 | 1004.8 |
| 20260504060137 | 6 | 142 | 0.0 | 0.0 | 0.00 | 0.00 | 0.00 | 84 | 1005.3 |
| 20260504050605 | 5 | 142 | 0.0 | 0.0 | 0.00 | 0.00 | 0.00 | 84 | 1005.2 |
| 20260504045559 | 5 | 142 | 0.0 | 0.0 | 0.00 | 0.00 | 0.00 | 84 | 1005.2 |
| 20260504045054 | 5 | 142 | 0.0 | 0.0 | 0.00 | 0.00 | 0.00 | 84 | 1005.2 |
| 20260504044552 | 5 | 142 | 0.0 | 0.0 | 0.00 | 0.00 | 0.00 | 85 | 1005.2 |
| 20260504044049 | 5 | 142 | 0.0 | 0.0 | 0.00 | 0.00 | 0.00 | 85 | 1005.4 |
| 20260504043546 | 5 | 142 | 0.0 | 0.0 | 0.00 | 0.00 | 0.00 | 84 | 1005.1 |
| 20260504043043 | 5 | 142 | 0.0 | 0.0 | 0.00 | 0.00 | 0.00 | 84 | 1005.2 |
| 20260504042540 | 5 | 142 | 0.0 | 0.0 | 0.00 | 0.00 | 0.00 | 84 | 1005.2 |
| 20260504042037 | 5 | 142 | 0.0 | 0.0 | 0.00 | 0.00 | 0.00 | 84 | 1005.0 |
| 20260504041533 | 5 | 142 | 0.0 | 0.0 | 0.00 | 0.00 | 0.00 | 84 | 1005.1 |
| 20260504041029 | 5 | 142 | 0.0 | 0.0 | 0.00 | 0.00 | 0.00 | 84 | 1005.1 |
| 20260504040527 | 5 | 142 | 0.0 | 0.0 | 0.00 | 0.00 | 0.00 | 84 | 1005.1 |
| 20260504040024 | 5 | 138 | 0.0 | 0.0 | 0.00 | 0.00 | 0.00 | 83 | 1005.4 |
| 20260504035521 | 5 | 143 | 0.0 | 0.0 | 0.00 | 0.00 | 0.00 | 83 | 1005.3 |
| 20260504035017 | 5 | 148 | 0.0 | 0.0 | 0.00 | 0.00 | 0.00 | 82 | 1005.4 |
| 20260504034515 | 5 | 148 | 0.0 | 0.0 | 0.00 | 0.00 | 0.00 | 82 | 1005.2 |
| 20260504034011 | 5 | 148 | 0.0 | 0.0 | 0.00 | 0.00 | 0.00 | 82 | 1005.2 |
| 20260504033509 | 5 | 148 | 0.0 | 0.0 | 0.00 | 0.00 | 0.00 | 82 | 1005.0 |
| 20260504033006 | 5 | 148 | 0.0 | 0.0 | 0.00 | 0.00 | 0.00 | 81 | 1005.1 |
| 20260504032503 | 5 | 148 | 0.0 | 0.0 | 0.00 | 0.00 | 0.00 | 80 | 1004.9 |
| 20260504032000 | 5 | 148 | 0.0 | 0.0 | 0.00 | 0.00 | 0.00 | 80 | 1004.9 |
| 20260504031456 | 6 | 148 | 0.0 | 0.0 | 0.00 | 0.00 | 0.00 | 79 | 1005.3 |
| 20260504030953 | 6 | 148 | 0.0 | 0.0 | 0.00 | 0.00 | 0.00 | 79 | 1005.0 |
| 20260504030450 | 6 | 148 | 0.0 | 0.0 | 0.00 | 0.00 | 0.00 | 79 | 1004.9 |
| 20260504025946 | 6 | 148 | 0.0 | 0.0 | 0.00 | 0.00 | 0.00 | 78 | 1004.9 |
| 20260504025443 | 6 | 148 | 0.0 | 0.0 | 0.00 | 0.00 | 0.00 | 78 | 1004.7 |
| 20260504024940 | 6 | 142 | 0.0 | 0.0 | 0.00 | 0.00 | 0.00 | 77 | 1004.7 |
| 20260504024437 | 6 | 142 | 0.0 | 0.0 | 0.00 | 0.00 | 0.00 | 77 | 1004.8 |
| 20260504023934 | 6 | 142 | 0.0 | 0.0 | 0.00 | 0.00 | 0.00 | 76 | 1004.6 |
| 20260504023431 | 6 | 142 | 0.0 | 0.0 | 0.00 | 0.00 | 0.00 | 75 | 1004.8 |
| 20260504022926 | 6 | 142 | 0.0 | 0.0 | 0.00 | 0.00 | 0.00 | 75 | 1004.9 |
| 20260504022423 | 7 | 142 | 0.0 | 0.0 | 0.00 | 0.00 | 0.00 | 74 | 1004.7 |
| 20260504021920 | 7 | 142 | 0.0 | 0.0 | 0.00 | 0.00 | 0.00 | 74 | 1004.6 |
| 20260504021417 | 7 | 142 | 0.0 | 0.0 | 0.00 | 0.00 | 0.00 | 73 | 1004.5 |
| 20260504020914 | 7 | 141 | 0.0 | 0.0 | 0.00 | 0.00 | 0.00 | 72 | 1004.3 |
| 20260504020411 | 7 | 145 | 0.0 | 0.0 | 0.00 | 0.00 | 0.00 | 72 | 1004.7 |
| 20260504015907 | 7 | 145 | 0.0 | 0.0 | 0.00 | 0.00 | 0.00 | 71 | 1004.6 |
| 20260504015403 | 7 | 145 | 0.0 | 0.0 | 0.00 | 0.00 | 0.00 | 70 | 1004.6 |
| 20260504014859 | 7 | 145 | 0.0 | 0.0 | 0.00 | 0.00 | 0.00 | 69 | 1004.5 |
| 20260504014355 | 7 | 144 | 0.0 | 0.0 | 0.00 | 0.00 | 0.00 | 69 | 1004.4 |
| 20260504013853 | 8 | 144 | 0.0 | 0.0 | 0.00 | 0.00 | 0.00 | 67 | 1004.4 |
| 20260504013351 | 8 | 144 | 0.0 | 0.0 | 0.00 | 0.00 | 0.00 | 67 | 1004.4 |
| 20260504012847 | 8 | 145 | 0.0 | 0.0 | 0.00 | 0.00 | 0.00 | 65 | 1004.6 |
| 20260504012345 | 8 | 145 | 0.0 | 0.0 | 0.00 | 0.00 | 0.00 | 65 | 1004.4 |
| 20260504011842 | 8 | 145 | 0.0 | 0.0 | 0.00 | 0.00 | 0.00 | 64 | 1004.1 |
| 20260504011338 | 8 | 145 | 0.0 | 0.0 | 0.00 | 0.00 | 0.00 | 63 | 1004.1 |
| 20260504010835 | 9 | 145 | 0.0 | 0.0 | 0.00 | 0.00 | 0.00 | 62 | 1004.5 |
| 20260504010330 | 9 | 145 | 0.0 | 0.0 | 0.00 | 0.00 | 0.00 | 60 | 1004.1 |
| 20260504005827 | 10 | 145 | 0.0 | 0.0 | 0.00 | 0.00 | 0.00 | 60 | 1004.2 |
| 20260504005324 | 10 | 145 | 0.0 | 0.0 | 0.00 | 0.00 | 0.00 | 58 | 1004.0 |
| 20260504004822 | 10 | 142 | 0.0 | 0.0 | 0.00 | 0.00 | 0.00 | 57 | 1004.2 |
| 20260504004319 | 10 | 144 | 0.0 | 0.0 | 0.00 | 0.00 | 0.00 | 55 | 1004.0 |
| 20260504003815 | 10 | 145 | 0.0 | 0.0 | 0.00 | 0.00 | 0.00 | 54 | 1004.1 |
| 20260504003313 | 11 | 145 | 0.0 | 0.0 | 0.00 | 0.00 | 0.00 | 53 | 1004.0 |
| 20260504002809 | 11 | 145 | 0.0 | 0.0 | 0.00 | 0.00 | 0.00 | 51 | 1003.9 |
| 20260504002306 | 11 | 145 | 0.0 | 0.0 | 0.00 | 0.00 | 0.00 | 49 | 1004.2 |
| 20260504001804 | 11 | 147 | 0.0 | 0.0 | 0.00 | 0.00 | 0.00 | 48 | 1003.9 |
| 20260504001300 | 12 | 148 | 0.0 | 0.0 | 0.00 | 0.00 | 0.00 | 46 | 1003.9 |
| 20260504000757 | 12 | 148 | 0.0 | 0.0 | 0.00 | 0.00 | 0.00 | 45 | 1003.8 |
| 20260504000254 | 12 | 148 | 0.0 | 0.0 | 0.00 | 0.00 | 0.00 | 45 | 1003.9 |
| 20260503235752 | 13 | 149 | 0.0 | 0.0 | 0.00 | 0.00 | 0.00 | 43 | 1003.8 |
| 20260503235249 | 13 | 151 | 0.0 | 0.0 | 0.00 | 0.00 | 0.00 | 45 | 1003.8 |
| 20260503234747 | 13 | 140 | 0.0 | 0.0 | 0.00 | 0.00 | 0.00 | 42 | 1003.7 |
| 20260503234245 | 13 | 141 | 0.0 | 0.0 | 0.00 | 0.00 | 0.00 | 39 | 1003.6 |
| 20260503233742 | 13 | 145 | 0.0 | 0.0 | 0.00 | 0.00 | 0.00 | 40 | 1003.5 |
| 20260503233237 | 14 | 148 | 0.0 | 0.0 | 0.00 | 0.00 | 0.00 | 38 | 1003.6 |
| 20260503232734 | 14 | 142 | 0.0 | 0.0 | 0.00 | 0.00 | 0.00 | 37 | 1003.7 |
| 20260503232232 | 15 | 147 | 0.0 | 0.0 | 0.00 | 0.00 | 0.00 | 37 | 1003.5 |
| 20260503231730 | 15 | 153 | 0.0 | 0.0 | 0.00 | 0.00 | 0.00 | 36 | 1003.5 |
| 20260503231226 | 15 | 145 | 0.0 | 0.0 | 0.00 | 0.00 | 0.00 | 37 | 1003.4 |
| 20260503230722 | 15 | 149 | 0.0 | 0.0 | 0.00 | 0.00 | 0.00 | 35 | 1003.4 |
| 20260503230220 | 15 | 150 | 0.0 | 1.6 | 0.00 | 0.00 | 0.00 | 36 | 1003.3 |
| 20260503225717 | 15 | 142 | 0.0 | 0.0 | 0.00 | 0.00 | 0.00 | 37 | 1003.3 |
| 20260503225217 | 15 | 150 | 0.0 | 0.0 | 0.00 | 0.00 | 0.00 | 34 | 1003.4 |
| 20260503224715 | 16 | 138 | 0.0 | 0.0 | 0.00 | 0.00 | 0.00 | 33 | 1003.3 |
| 20260503224212 | 16 | 131 | 0.0 | 0.0 | 0.00 | 0.00 | 0.00 | 34 | 1003.5 |
| 20260503223710 | 16 | 160 | 1.6 | 1.6 | 0.00 | 0.00 | 0.00 | 35 | 1003.6 |
| 20260503223207 | 16 | 143 | 0.0 | 1.6 | 0.00 | 0.00 | 0.00 | 33 | 1003.4 |
| 20260503222703 | 16 | 148 | 0.0 | 0.0 | 0.00 | 0.00 | 0.00 | 35 | 1003.6 |
| 20260503222201 | 16 | 178 | 0.0 | 1.6 | 0.00 | 0.00 | 0.00 | 33 | 1003.6 |
| 20260503221700 | 16 | 138 | 0.0 | 0.0 | 0.00 | 0.00 | 0.00 | 32 | 1003.6 |
| 20260503221156 | 16 | 137 | 0.0 | 0.0 | 0.00 | 0.00 | 0.00 | 34 | 1003.7 |
| 20260503220653 | 16 | 148 | 1.6 | 1.6 | 0.00 | 0.00 | 0.00 | 32 | 1003.7 |
| 20260503220149 | 15 | 172 | 1.6 | 1.6 | 0.00 | 0.00 | 0.00 | 35 | 1003.7 |
| 20260503215647 | 16 | 108 | 0.0 | 0.0 | 0.00 | 0.00 | 0.00 | 34 | 1003.6 |
| 20260503215143 | 16 | 124 | 0.0 | 0.0 | 0.00 | 0.00 | 0.00 | 36 | 1003.8 |
| 20260503214643 | 16 | 145 | 0.0 | 1.6 | 0.00 | 0.00 | 0.00 | 34 | 1003.8 |
| 20260503214138 | 16 | 144 | 0.0 | 0.0 | 0.00 | 0.00 | 0.00 | 34 | 1003.7 |
| 20260503213637 | 16 | 104 | 0.0 | 1.6 | 0.00 | 0.00 | 0.00 | 35 | 1003.8 |
| 20260503213133 | 16 | 186 | 0.0 | 0.0 | 0.00 | 0.00 | 0.00 | 35 | 1003.9 |
| 20260503212631 | 16 | 124 | 0.0 | 1.6 | 0.00 | 0.00 | 0.00 | 34 | 1003.8 |
| 20260503212128 | 16 | 150 | 0.0 | 1.6 | 0.00 | 0.00 | 0.00 | 35 | 1003.9 |
| 20260503211626 | 16 | 112 | 3.2 | 4.8 | 0.00 | 0.00 | 0.00 | 31 | 1003.8 |
| 20260503211121 | 16 | 165 | 0.0 | 0.0 | 0.00 | 0.00 | 0.00 | 33 | 1003.6 |
| 20260503210618 | 16 | 149 | 0.0 | 1.6 | 0.00 | 0.00 | 0.00 | 33 | 1003.8 |
| 20260503210115 | 16 | 125 | 1.6 | 1.6 | 0.00 | 0.00 | 0.00 | 36 | 1003.5 |
| 20260503205610 | 16 | 143 | 1.6 | 1.6 | 0.00 | 0.00 | 0.00 | 35 | 1003.5 |
| 20260503205107 | 15 | 145 | 0.0 | 0.0 | 0.00 | 0.00 | 0.00 | 34 | 1003.8 |
| 20260503204604 | 15 | 168 | 3.2 | 3.2 | 0.00 | 0.00 | 0.00 | 34 | 1003.7 |
| 20260503204101 | 15 | 138 | 0.0 | 1.6 | 0.00 | 0.00 | 0.00 | 35 | 1003.8 |
| 20260503203558 | 15 | 159 | 0.0 | 0.0 | 0.00 | 0.00 | 0.00 | 32 | 1003.9 |
| 20260503203055 | 15 | 127 | 0.0 | 0.0 | 0.00 | 0.00 | 0.00 | 35 | 1003.8 |
| 20260503202553 | 15 | 166 | 1.6 | 1.6 | 0.00 | 0.00 | 0.00 | 35 | 1003.8 |
| 20260503202051 | 15 | 140 | 0.0 | 0.0 | 0.00 | 0.00 | 0.00 | 37 | 1004.0 |
| 20260503201549 | 15 | 199 | 3.2 | 3.2 | 0.00 | 0.00 | 0.00 | 33 | 1004.0 |
| 20260503201045 | 15 | 148 | 1.6 | 1.6 | 0.00 | 0.00 | 0.00 | 34 | 1004.2 |
| 20260503200541 | 15 | 172 | 1.6 | 1.6 | 0.00 | 0.00 | 0.00 | 35 | 1004.3 |
| 20260503200038 | 15 | 133 | 0.0 | 0.0 | 0.00 | 0.00 | 0.00 | 36 | 1004.1 |
| 20260503195536 | 15 | 179 | 0.0 | 0.0 | 0.00 | 0.00 | 0.00 | 37 | 1004.3 |
| 20260503195032 | 15 | 168 | 0.0 | 1.6 | 0.00 | 0.00 | 0.00 | 36 | 1004.3 |
| 20260503194530 | 15 | 162 | 1.6 | 1.6 | 0.00 | 0.00 | 0.00 | 35 | 1004.3 |
| 20260503194029 | 15 | 321 | 1.6 | 3.2 | 0.00 | 0.00 | 0.00 | 37 | 1004.6 |
| 20260503193526 | 15 | 153 | 1.6 | 1.6 | 0.00 | 0.00 | 0.00 | 37 | 1004.5 |
| 20260503193021 | 15 | 311 | 3.2 | 4.8 | 0.00 | 0.00 | 0.00 | 34 | 1004.8 |
| 20260503192518 | 15 | 148 | 0.0 | 0.0 | 0.00 | 0.00 | 0.00 | 37 | 1004.7 |
| 20260503192014 | 15 | 234 | 1.6 | 3.2 | 0.00 | 0.00 | 0.00 | 37 | 1004.7 |
| 20260503191511 | 15 | 148 | 3.2 | 3.2 | 0.00 | 0.00 | 0.00 | 41 | 1004.8 |
| 20260503191008 | 15 | 156 | 1.6 | 3.2 | 0.00 | 0.00 | 0.00 | 36 | 1004.9 |
| 20260503190504 | 15 | 142 | 0.0 | 0.0 | 0.00 | 0.00 | 0.00 | 42 | 1004.9 |
| 20260503190002 | 14 | 184 | 1.6 | 3.2 | 0.00 | 0.00 | 0.00 | 39 | 1005.0 |
| 20260503185458 | 15 | 171 | 1.6 | 1.6 | 0.00 | 0.00 | 0.00 | 36 | 1005.0 |
| 20260503184957 | 14 | 141 | 1.6 | 3.2 | 0.00 | 0.00 | 0.00 | 38 | 1005.2 |
| 20260503184454 | 15 | 167 | 1.6 | 1.6 | 0.00 | 0.00 | 0.00 | 39 | 1005.2 |
| 20260503183950 | 14 | 109 | 3.2 | 3.2 | 0.00 | 0.00 | 0.00 | 40 | 1005.2 |
| 20260503183447 | 15 | 138 | 0.0 | 1.6 | 0.00 | 0.00 | 0.00 | 38 | 1005.3 |
| 20260503182944 | 14 | 136 | 0.0 | 1.6 | 0.00 | 0.00 | 0.00 | 38 | 1005.3 |
| 20260503182443 | 14 | 169 | 3.2 | 3.2 | 0.00 | 0.00 | 0.00 | 37 | 1005.4 |
| 20260503181940 | 14 | 143 | 4.8 | 6.4 | 0.00 | 0.00 | 0.00 | 40 | 1005.5 |
| 20260503181437 | 14 | 160 | 1.6 | 1.6 | 0.00 | 0.00 | 0.00 | 37 | 1005.3 |
| 20260503180933 | 13 | 159 | 1.6 | 1.6 | 0.00 | 0.00 | 0.00 | 39 | 1005.6 |
| 20260503180432 | 14 | 138 | 3.2 | 3.2 | 0.00 | 0.00 | 0.00 | 38 | 1005.6 |
| 20260503175928 | 13 | 271 | 1.6 | 3.2 | 0.00 | 0.00 | 0.00 | 40 | 1005.6 |
| 20260503175426 | 14 | 140 | 1.6 | 3.2 | 0.00 | 0.00 | 0.00 | 38 | 1005.6 |
| 20260503174921 | 14 | 286 | 3.2 | 4.8 | 0.00 | 0.00 | 0.00 | 38 | 1005.7 |
| 20260503174420 | 13 | 95 | 0.0 | 0.0 | 0.00 | 0.00 | 0.00 | 42 | 1005.7 |
| 20260503173920 | 13 | 189 | 1.6 | 3.2 | 0.00 | 0.00 | 0.00 | 42 | 1005.8 |
| 20260503173416 | 13 | 156 | 0.0 | 0.0 | 0.00 | 0.00 | 0.00 | 41 | 1005.9 |
| 20260503172913 | 13 | 86 | 0.0 | 1.6 | 0.00 | 0.00 | 0.00 | 44 | 1005.9 |
| 20260503172411 | 13 | 122 | 0.0 | 0.0 | 0.00 | 0.00 | 0.00 | 39 | 1005.8 |
| 20260503171907 | 13 | 144 | 0.0 | 0.0 | 0.00 | 0.00 | 0.00 | 45 | 1005.9 |
| 20260503171404 | 13 | 160 | 0.0 | 0.0 | 0.00 | 0.00 | 0.00 | 38 | 1005.8 |
| 20260503170901 | 13 | 154 | 3.2 | 3.2 | 0.00 | 0.00 | 0.00 | 40 | 1005.9 |
| 20260503170357 | 13 | 145 | 3.2 | 3.2 | 0.00 | 0.00 | 0.00 | 39 | 1006.0 |
| 20260503150749 | 12 | 184 | 0.0 | 1.6 | 0.00 | 0.00 | 0.00 | 41 | 1006.7 |
| 20260503150246 | 12 | 203 | 1.6 | 3.2 | 0.00 | 0.00 | 0.00 | 44 | 1006.6 |
| 20260503140210 | 10 | 94 | 3.2 | 3.2 | 0.00 | 0.00 | 0.00 | 45 | 1006.8 |